CZ-4B R/B (28415 NORAD) Tracking and Keplerian Element Data

This shows tracking and keplerian element data for the satellite.

Feedback or suggestion? Click here.




ElementValue
Catalog28415
NameCZ-4B R/B
Epoch Orbit6033
Epoch Day13.07664371
Epoch Year2024
RAAN50.3034
Inclination97.4442
Eccentricity0.004413
Argument of Perigee202.2482
Mean Anonmoly157.6836
Mean Motion15.13351237
Decay Rate6.184E-05
L11 28415U 04035C 24013.07664371 .00006184 00000+0 34234-3 0 9993
L22 28415 97.4442 50.3034 0044130 202.2482 157.6836 15.13351237 60338



Live tracking and technical data element details for CZ-4B R/B (NORAD 28415). CZ-4B R/B can be tracked NOW for your location showing map with azimuth and elevation plus other details from your city location.







IsCatalogInMostPopularTable: catalog: 28415, numindb: 180
Update: records affected: 1



GetName: 28415 CZ-4B R/B

Hit Count: updated at: Fri, 19 Apr 2024 12:09:02 GMT